[[{"header":{"parameterUnit":"m.s-1","parameterCategory":1,"la1":30.2991,"la2":30.254,"lo1":-89.0895,"lo2":-89.0444,"dy":0.0017,"dx":0.0017,"nx":28,"ny":28,"refTime":"2025-04-10T09:00:00:Z","depth":0,"parameterNumber":2,"parameterNumberName":"U-component_of_WINDS"},"data":[0,0,0,0,0,0,0,0,0,0,0,0,0,0,0,0,0,0,0,0,0,0,0,0,0,0,0,0,0,0,0,0,0,0,0,0,0,0,0,0,0,0,0,0,0,0,0,0,0,0,0,0,0,0,0,0,0,0,2.9835,2.9835,0,2.9846,2.9846,2.9847,2.9856,2.9856,2.9856,2.9856,2.9867,2.9867,2.9867,0,0,0,0,0,0,0,0,0,0,0,0,0,2.9821,2.9821,2.9835,2.9835,2.9835,2.9846,2.9846,2.9847,2.9856,2.9856,2.9856,2.9856,2.9867,2.9867,2.9867,0,0,0,0,0,0,0,0,0,0,0,0,0,2.9829,2.9821,2.9835,2.9841,2.9842,2.9846,2.9846,2.9847,2.9856,2.9856,2.9856,2.9856,2.9867,2.9867,2.9867,2.9866,0,0,2.9868,2.9868,0,0,0,0,0,0,0,0,2.9828,2.9829,2.984,2.9841,2.9841,2.985,2.9845,2.9853,2.9856,2.9851,2.9856,2.9856,2.9861,2.9862,2.9863,2.9866,2.9867,2.9868,2.9868,2.9868,2.9868,0,0,0,0,0,0,0,2.9828,2.9829,2.9839,2.984,2.9841,2.9843,2.9845,2.9847,2.9855,2.9851,2.9852,2.9853,2.9861,2.9863,2.9864,2.9867,2.9868,2.9868,2.9868,2.9868,2.987,2.987,0,0,0,0,0,0,2.9826,2.9828,2.9839,2.984,2.9835,2.9843,2.9845,2.9847,2.9855,2.9856,2.9853,2.9853,2.9863,2.9863,2.9864,2.9864,2.9868,2.9868,2.9869,2.987,2.987,2.987,0,0,0,0,0,0,2.9826,2.9827,2.9838,2.9834,2.9836,2.9844,2.9846,2.9847,2.9849,2.9856,2.9857,2.9853,2.9863,2.9864,2.9866,2.9864,2.9869,2.9869,2.9871,2.987,2.987,2.9862,0,0,0,0,0,0,2.9826,2.9827,2.9826,2.9834,2.9836,2.984,2.9846,2.9847,2.985,2.985,2.9857,2.9858,2.9863,2.9865,2.9866,2.9865,2.9869,2.9871,2.987,2.987,2.9863,2.9862,2.9861,0,0,0,0,0,2.9825,2.9823,2.9826,2.9828,2.9836,2.984,2.9841,2.9847,2.9849,2.9849,2.9854,2.9858,2.9864,2.9865,2.9866,2.9865,2.9871,2.9871,2.987,2.9863,2.9862,2.9861,0,0,0,0,0,0,2.9814,2.9824,2.9828,2.9828,2.9833,2.9841,2.9841,2.9845,2.9849,2.9849,2.9856,2.9858,2.9859,2.9862,2.9863,2.9865,2.9868,2.9868,2.9862,2.9861,2.9861,2.986,2.9869,0,0,0,0,0,2.9812,2.9815,2.9823,2.9823,2.9825,2.9833,2.9835,2.9839,2.9844,2.9846,2.9851,2.9855,2.9858,2.986,2.9863,2.9864,2.9865,2.9863,2.9862,2.9862,2.9861,2.9863,2.9862,2.9869,2.9869,2.9869,0,0,2.9807,2.9813,2.9814,2.9821,2.9825,2.9828,2.9834,2.9836,2.9838,2.9846,2.9848,2.9852,2.9858,2.9859,2.986,2.9862,2.986,2.9861,2.9861,2.9861,2.9862,2.9862,2.9861,2.9869,2.9869,2.9869,0,0,2.9799,2.9804,2.9805,2.9809,2.9816,2.9821,2.9822,2.9829,2.9833,2.9835,2.9841,2.9844,2.9849,2.9853,2.9856,2.9852,2.9856,2.9853,2.9848,2.9849,2.9849,2.9848,2.9847,2.9847,2.9853,2.9852,2.9852,0,2.9792,2.9797,2.9804,2.9807,2.981,2.9818,2.9819,2.9823,2.983,2.9832,2.9835,2.9842,2.9846,2.9849,2.9848,2.985,2.9851,2.9852,2.9848,2.9848,2.9848,2.9847,2.9846,2.9852,2.9852,2.9852,2.9852,0,2.9788,2.9791,2.9791,2.9799,2.9802,2.9803,2.9812,2.9814,2.9819,2.9824,2.9827,2.9833,2.9838,2.9839,2.9843,2.9843,2.9844,2.9847,2.9851,2.9846,2.9846,2.9845,2.9851,2.9852,2.9852,2.9852,0,0,2.9772,2.9786,2.9785,2.979,2.9799,2.9801,2.9804,2.9809,2.9811,2.9817,2.9819,2.9824,2.9828,2.9831,2.9836,2.9837,2.9834,2.984,2.9841,2.9839,2.9835,2.9832,2.9831,2.9837,2.9837,2.9837,2.9834,0,2.9766,2.9771,2.9779,2.9781,2.9785,2.9794,2.9796,2.9802,2.9807,2.9811,2.9816,2.982,2.9825,2.9827,2.9828,2.9834,2.9833,2.9834,2.9839,2.9839,2.9837,2.9831,2.9827,2.9824,2.9834,2.9834,2.9834,0,2.9759,2.9765,2.9768,2.9778,2.9779,2.9781,2.9788,2.9791,2.9799,2.9802,2.9807,2.9813,2.9816,2.982,2.9825,2.9826,2.9828,2.9832,2.9832,2.9832,2.9836,2.9831,2.9823,2.9823,2.9834,2.9834,2.9834,0,2.9747,2.9756,2.9759,2.9762,2.9774,2.9775,2.978,2.9788,2.9791,2.9797,2.9799,2.9805,2.9808,2.9813,2.982,2.9823,2.9825,2.9829,2.9828,2.9828,2.9827,2.9827,2.982,2.983,2.983,2.983,2.983,0,2.9739,2.974,2.9754,2.9756,2.9758,2.9768,2.977,2.9775,2.9782,2.9786,2.9794,2.9797,2.9807,2.9811,2.9817,2.9821,2.9822,2.9825,2.9827,2.9824,2.9824,2.9826,2.9826,2.983,2.983,2.983,2.983,0,2.9725,2.9735,2.9739,2.975,2.9753,2.9755,2.9764,2.9767,2.9774,2.9778,2.9779,2.9789,2.9795,2.9804,2.9811,2.9815,2.9818,2.982,2.9816,2.9816,2.9815,2.9815,2.9808,2.9808,2.9818,2.9818,2.9818,0,2.9719,2.9721,2.9733,2.9736,2.9741,2.9746,2.975,2.976,2.9764,2.9774,2.9775,2.9782,2.9787,2.9796,2.9804,2.981,2.9813,2.981,2.9814,2.9812,2.9813,2.9812,2.9813,2.9809,2.9809,2.9809,2.9809,0,2.9707,2.9712,2.9718,2.9726,2.9731,2.9737,2.9744,2.9746,2.9758,2.9762,2.9768,2.9773,2.9782,2.9788,2.9796,2.9801,2.9807,2.9808,2.9808,2.9805,2.9802,2.9804,2.9813,2.9807,2.9808,2.9808,2.9808,2.9808,2.9697,2.97,2.9709,2.9715,2.9722,2.9729,2.9732,2.974,2.9745,2.9754,2.976,2.9766,2.9775,2.9786,2.9791,2.9796,2.9798,2.9798,2.9798,2.9798,2.9797,2.9802,2.9797,2.9797,2.9798,2.9798,2.9798,0,2.9686,2.9693,2.9699,2.9709,2.9714,2.9721,2.9729,2.9733,2.9738,2.9746,2.9752,2.976,2.9767,2.9777,2.9784,2.9787,2.9789,2.9788,2.9788,2.9789,2.9795,2.9794,2.9786,2.9786,2.9786,2.9786,2.9786,2.9786,2.968,2.9685,2.9691,2.97,2.9707,2.9713,2.9718,2.9724,2.9731,2.9739,2.9746,2.9752,2.9761,2.9769,2.9776,2.9779,2.9781,2.9779,2.9782,2.9787,2.9788,2.9789,2.9789,2.978,2.978,2.9776,2.9776,2.9776]},{"header":{"parameterUnit":"m.s-1","parameterCategory":1,"la1":30.2991,"la2":30.254,"lo1":-89.0895,"lo2":-89.0444,"dy":0.0017,"dx":0.0017,"nx":28,"ny":28,"refTime":"2025-04-10T09:00:00:Z","depth":0,"parameterNumber":3,"parameterNumberName":"V-component_of_WINDS"},"data":[0,0,0,0,0,0,0,0,0,0,0,0,0,0,0,0,0,0,0,0,0,0,0,0,0,0,0,0,0,0,0,0,0,0,0,0,0,0,0,0,0,0,0,0,0,0,0,0,0,0,0,0,0,0,0,0,0,0,-3.9919,-3.9919,0,-3.9941,-3.9942,-3.9942,-3.996,-3.996,-3.9961,-3.9961,-3.9978,-3.9978,-3.9978,0,0,0,0,0,0,0,0,0,0,0,0,0,-3.989,-3.989,-3.9919,-3.9919,-3.992,-3.9941,-3.9942,-3.9942,-3.996,-3.996,-3.9961,-3.9961,-3.9978,-3.9978,-3.9978,0,0,0,0,0,0,0,0,0,0,0,0,0,-3.9906,-3.989,-3.9919,-3.9932,-3.9933,-3.9941,-3.9942,-3.9942,-3.996,-3.996,-3.9961,-3.9961,-3.9978,-3.9978,-3.9978,-3.9974,0,0,-3.998,-3.998,0,0,0,0,0,0,0,0,-3.9905,-3.9907,-3.9929,-3.9931,-3.9932,-3.9949,-3.9938,-3.9953,-3.996,-3.995,-3.9961,-3.9961,-3.9967,-3.9969,-3.9972,-3.9975,-3.9976,-3.998,-3.998,-3.998,-3.998,0,0,0,0,0,0,0,-3.9904,-3.9906,-3.9928,-3.993,-3.9931,-3.9935,-3.9938,-3.994,-3.9956,-3.9951,-3.9952,-3.9955,-3.9968,-3.9972,-3.9972,-3.9976,-3.998,-3.998,-3.998,-3.998,-3.9981,-3.998,0,0,0,0,0,0,-3.9902,-3.9905,-3.9927,-3.9928,-3.9919,-3.9935,-3.9938,-3.9943,-3.9956,-3.9959,-3.9954,-3.9955,-3.9971,-3.9972,-3.9973,-3.9972,-3.998,-3.998,-3.9981,-3.9981,-3.9981,-3.998,0,0,0,0,0,0,-3.9901,-3.9903,-3.9926,-3.9917,-3.9921,-3.9936,-3.994,-3.9943,-3.9947,-3.9959,-3.9962,-3.9955,-3.9971,-3.9973,-3.9975,-3.9972,-3.9981,-3.9981,-3.9981,-3.9981,-3.998,-3.9967,0,0,0,0,0,0,-3.99,-3.9903,-3.9902,-3.9917,-3.9921,-3.9928,-3.994,-3.9943,-3.9948,-3.9949,-3.9961,-3.9963,-3.9971,-3.9975,-3.9976,-3.9973,-3.9981,-3.9981,-3.9981,-3.9981,-3.9968,-3.9966,-3.9965,0,0,0,0,0,-3.9899,-3.9895,-3.9902,-3.9904,-3.992,-3.9928,-3.993,-3.9942,-3.9947,-3.9947,-3.9955,-3.9962,-3.9973,-3.9975,-3.9976,-3.9973,-3.9982,-3.9981,-3.9981,-3.9968,-3.9967,-3.9965,0,0,0,0,0,0,-3.9876,-3.9897,-3.9905,-3.9906,-3.9916,-3.9931,-3.993,-3.9939,-3.9945,-3.9946,-3.9959,-3.9962,-3.9963,-3.9968,-3.997,-3.9972,-3.9978,-3.9978,-3.9968,-3.9967,-3.9965,-3.9964,-3.9981,0,0,0,0,0,-3.9872,-3.9878,-3.9895,-3.9895,-3.99,-3.9914,-3.9918,-3.9927,-3.9936,-3.994,-3.9948,-3.9956,-3.9962,-3.9964,-3.997,-3.9969,-3.9972,-3.9968,-3.9967,-3.9966,-3.9965,-3.9968,-3.9967,-3.9979,-3.9979,-3.9979,0,0,-3.9861,-3.9874,-3.9876,-3.9891,-3.9899,-3.9905,-3.9917,-3.9921,-3.9926,-3.994,-3.9944,-3.9951,-3.996,-3.9962,-3.9963,-3.9966,-3.9963,-3.9965,-3.9964,-3.9964,-3.9967,-3.9966,-3.9965,-3.9978,-3.9978,-3.9979,0,0,-3.9846,-3.9856,-3.9858,-3.9868,-3.9882,-3.9892,-3.9893,-3.9908,-3.9914,-3.9919,-3.9931,-3.9935,-3.9943,-3.9951,-3.9956,-3.9948,-3.9956,-3.9949,-3.9942,-3.9944,-3.9944,-3.9943,-3.9942,-3.9941,-3.9949,-3.9949,-3.9949,0,-3.9831,-3.9842,-3.9858,-3.9863,-3.987,-3.9886,-3.9889,-3.9896,-3.991,-3.9914,-3.9918,-3.9932,-3.9939,-3.9944,-3.9943,-3.9945,-3.9947,-3.9948,-3.9943,-3.9942,-3.9942,-3.9941,-3.994,-3.9948,-3.9948,-3.9948,-3.9948,0,-3.9824,-3.9831,-3.9831,-3.9848,-3.9855,-3.9858,-3.9874,-3.9879,-3.9888,-3.9898,-3.9904,-3.9915,-3.9924,-3.9926,-3.9933,-3.9933,-3.9935,-3.9941,-3.9947,-3.994,-3.9939,-3.9939,-3.9947,-3.9947,-3.9948,-3.9948,0,0,-3.9792,-3.9821,-3.9821,-3.983,-3.9849,-3.9854,-3.9859,-3.9871,-3.9876,-3.9885,-3.9891,-3.99,-3.9907,-3.9912,-3.9921,-3.9923,-3.9919,-3.9929,-3.993,-3.9928,-3.9922,-3.9918,-3.9917,-3.9925,-3.9925,-3.9925,-3.9922,0,-3.9781,-3.9793,-3.981,-3.9816,-3.9824,-3.9841,-3.9846,-3.9858,-3.9868,-3.9876,-3.9887,-3.9894,-3.9901,-3.9905,-3.9908,-3.9919,-3.9918,-3.9919,-3.9929,-3.993,-3.9927,-3.9917,-3.9911,-3.9908,-3.9921,-3.9921,-3.9921,0,-3.9769,-3.9782,-3.979,-3.9811,-3.9815,-3.9819,-3.9833,-3.984,-3.9855,-3.9862,-3.9871,-3.9882,-3.9888,-3.9895,-3.9905,-3.9905,-3.9911,-3.9917,-3.9917,-3.9918,-3.9925,-3.9918,-3.9907,-3.9907,-3.9921,-3.9921,-3.9921,0,-3.9747,-3.9766,-3.9774,-3.9781,-3.9806,-3.9809,-3.9819,-3.9834,-3.9841,-3.9853,-3.9858,-3.9869,-3.9876,-3.9884,-3.9898,-3.9901,-3.9907,-3.9914,-3.9914,-3.9913,-3.9913,-3.9913,-3.9903,-3.9916,-3.9916,-3.9916,-3.9916,0,-3.9733,-3.9737,-3.9766,-3.977,-3.9777,-3.9796,-3.9801,-3.9813,-3.9827,-3.9834,-3.9849,-3.9855,-3.9873,-3.9882,-3.9893,-3.9901,-3.9902,-3.9909,-3.9912,-3.9908,-3.9907,-3.9911,-3.9912,-3.9916,-3.9916,-3.9916,-3.9916,0,-3.9709,-3.9728,-3.9739,-3.9763,-3.9769,-3.9773,-3.9793,-3.9799,-3.9812,-3.9821,-3.9824,-3.9844,-3.9855,-3.987,-3.9885,-3.9893,-3.99,-3.9903,-3.9895,-3.9897,-3.9897,-3.9897,-3.9889,-3.989,-3.9901,-3.9901,-3.9901,0,-3.9699,-3.9703,-3.973,-3.9737,-3.9748,-3.9759,-3.9768,-3.9787,-3.9796,-3.9815,-3.9818,-3.9832,-3.9843,-3.9861,-3.9875,-3.9888,-3.9893,-3.9889,-3.9894,-3.9892,-3.9894,-3.9894,-3.9896,-3.9888,-3.9888,-3.9887,-3.9887,0,-3.9679,-3.969,-3.9703,-3.972,-3.9731,-3.9745,-3.9759,-3.9764,-3.9787,-3.9795,-3.9809,-3.9819,-3.9837,-3.985,-3.9865,-3.9874,-3.9885,-3.9886,-3.9887,-3.9883,-3.9879,-3.9883,-3.9893,-3.9886,-3.9886,-3.9886,-3.9886,-3.9886,-3.9663,-3.9669,-3.969,-3.9705,-3.9719,-3.9733,-3.9741,-3.9756,-3.9769,-3.9787,-3.9797,-3.9811,-3.9828,-3.985,-3.9859,-3.987,-3.9874,-3.9874,-3.9874,-3.9875,-3.9874,-3.9878,-3.9872,-3.9872,-3.9872,-3.9872,-3.9873,0,-3.9645,-3.9661,-3.9675,-3.9697,-3.9709,-3.9721,-3.9738,-3.9747,-3.976,-3.9776,-3.9789,-3.9805,-3.982,-3.9837,-3.9852,-3.9858,-3.9863,-3.9861,-3.9861,-3.9863,-3.9869,-3.9868,-3.9857,-3.9857,-3.9857,-3.9857,-3.9857,-3.9857,-3.9638,-3.965,-3.9664,-3.9684,-3.9698,-3.9714,-3.9724,-3.9737,-3.975,-3.977,-3.9783,-3.9795,-3.9812,-3.983,-3.9843,-3.9848,-3.9853,-3.985,-3.9856,-3.9861,-3.9863,-3.9864,-3.9863,-3.9851,-3.9851,-3.985,-3.985,-3.985]}]]